Location: Maiden
(35.5760°N, 81.2120°W)
Time: 03:09:05
(UTC-04:00)

Cosmos 1805 - Pass Details

Date: 14 June 2018
Orbit: 525 x 534 km, 82.5° (Epoch: 13 August)

Event Time Altitude Azimuth Distance (km) Brightness Sun altitude
Rises 21:29:15 0° 354° (N) 2,686 7.5 -8.9°
Reaches altitude 10° 21:31:25 10° 355° (N) 1,791 6.6 -9.2°
Maximum altitude 21:35:21 83° 82° (E) 541 3.2 -9.9°
Drops below altitude 10° 21:39:15 10° 172° (S) 1,773 5.5 -10.5°
Enters shadow 21:39:51 - 172° (S) 2,018 5.8 -10.6°
